GW4612 Weather Reports


time (UTC)temp
C
wind
direction
speed
KPH
gust
KPH
rain 1hr
cm
rain 24hr
cm
rain mn
cm
humidity
%
barometer
mb
20260504081759 6 56 0.0 0.0 0.00 0.00 0.00 69 1016.8
20260504081256 6 151 0.0 1.6 0.00 0.00 0.00 69 1016.8
20260504080753 6 169 0.0 0.0 0.00 0.00 0.00 70 1017.0
20260504080249 6 169 0.0 0.0 0.00 0.00 0.00 69 1017.0
20260504070217 7 228 0.0 1.6 0.00 0.00 0.00 60 1017.1
20260504060137 7 227 0.0 0.0 0.00 0.00 0.00 63 1017.4
20260504050605 7 170 0.0 0.0 0.00 0.00 0.00 61 1017.4
20260504045559 7 170 0.0 0.0 0.00 0.00 0.00 64 1017.6
20260504045054 7 169 0.0 0.0 0.00 0.00 0.00 63 1017.7
20260504044552 7 169 0.0 0.0 0.00 0.00 0.00 61 1017.7
20260504044043 7 162 0.0 1.6 0.00 0.00 0.00 62 1017.6
20260504043541 7 147 0.0 0.0 0.00 0.00 0.00 59 1017.7
20260504043038 7 146 0.0 0.0 0.00 0.00 0.00 58 1017.5
20260504042535 7 147 0.0 1.6 0.00 0.00 0.00 58 1017.7
20260504042032 7 147 0.0 0.0 0.00 0.00 0.00 58 1017.5
20260504041528 8 147 0.0 0.0 0.00 0.00 0.00 57 1017.5
20260504041024 8 146 0.0 0.0 0.00 0.00 0.00 58 1017.5
20260504040521 8 160 0.0 1.6 0.00 0.00 0.00 60 1017.6
20260504040018 8 162 0.0 0.0 0.00 0.00 0.00 55 1017.6
20260504035515 8 160 0.0 0.0 0.00 0.00 0.00 54 1017.6
20260504035011 9 189 1.6 1.6 0.00 0.00 0.00 57 1017.6
20260504034509 9 262 0.0 1.6 0.00 0.00 0.00 49 1017.7
20260504034006 10 263 1.6 3.2 0.00 0.00 0.00 49 1017.8
20260504033504 10 266 1.6 1.6 0.00 0.00 0.00 48 1017.6
20260504033001 9 241 1.6 4.8 0.00 0.00 0.00 45 1017.8
20260504032457 9 268 0.0 3.2 0.00 0.00 0.00 46 1017.6
20260504031953 9 269 1.6 3.2 0.00 0.00 0.00 50 1017.6
20260504031450 9 257 0.0 1.6 0.00 0.00 0.00 48 1017.5
20260504030947 9 256 1.6 3.2 0.00 0.00 0.00 50 1017.6
20260504030445 9 259 1.6 3.2 0.00 0.00 0.00 47 1017.5
20260504025940 8 259 0.0 1.6 0.00 0.00 0.00 48 1017.5
20260504025438 9 258 0.0 0.0 0.00 0.00 0.00 52 1017.5
20260504024935 9 258 0.0 3.2 0.00 0.00 0.00 52 1017.7
20260504024432 9 264 0.0 0.0 0.00 0.00 0.00 51 1017.7
20260504023929 9 264 1.6 1.6 0.00 0.00 0.00 52 1017.6
20260504023425 9 264 0.0 1.6 0.00 0.00 0.00 44 1017.6
20260504022921 9 268 0.0 1.6 0.00 0.00 0.00 49 1017.6
20260504022418 8 288 3.2 3.2 0.00 0.00 0.00 50 1017.6
20260504021914 8 263 0.0 1.6 0.00 0.00 0.00 50 1017.6
20260504021411 8 255 0.0 3.2 0.00 0.00 0.00 53 1017.5
20260504020908 8 229 0.0 0.0 0.00 0.00 0.00 49 1017.5
20260504020404 8 238 0.0 1.6 0.00 0.00 0.00 48 1017.5
20260504015855 9 244 0.0 1.6 0.00 0.00 0.00 47 1017.7
20260504015352 9 314 3.2 4.8 0.00 0.00 0.00 46 1017.7
20260504014848 8 257 3.2 4.8 0.00 0.00 0.00 47 1017.7
20260504014344 8 254 0.0 1.6 0.00 0.00 0.00 49 1017.4
20260504013842 8 254 1.6 3.2 0.00 0.00 0.00 49 1017.3
20260504013339 8 261 1.6 3.2 0.00 0.00 0.00 48 1017.3
20260504012836 8 276 4.8 4.8 0.00 0.00 0.00 47 1017.3
20260504012334 8 269 3.2 3.2 0.00 0.00 0.00 47 1017.1
20260504011831 8 270 3.2 3.2 0.00 0.00 0.00 48 1017.2
20260504011327 8 266 3.2 4.8 0.00 0.00 0.00 49 1017.2
20260504010823 8 262 0.0 3.2 0.00 0.00 0.00 46 1016.9
20260504010319 9 257 3.2 3.2 0.00 0.00 0.00 50 1017.2
20260504005816 9 270 1.6 1.6 0.00 0.00 0.00 45 1017.2
20260504005313 9 268 1.6 3.2 0.00 0.00 0.00 46 1017.0
20260504004810 9 255 0.0 3.2 0.00 0.00 0.00 44 1017.1
20260504004308 9 255 3.2 3.2 0.00 0.00 0.00 48 1017.1
20260504003804 10 257 1.6 3.2 0.00 0.00 0.00 46 1016.9
20260504003301 10 268 1.6 3.2 0.00 0.00 0.00 44 1016.8
20260504002757 10 261 3.2 3.2 0.00 0.00 0.00 45 1016.8
20260504002255 10 273 1.6 3.2 0.00 0.00 0.00 40 1016.7
20260504001752 10 240 0.0 1.6 0.00 0.00 0.00 41 1016.8
20260504001249 11 259 1.6 3.2 0.00 0.00 0.00 41 1016.8
20260504000746 11 264 0.0 0.0 0.00 0.00 0.00 39 1016.8
20260504000243 11 244 1.6 3.2 0.00 0.00 0.00 37 1016.9
20260503235741 11 249 1.6 1.6 0.00 0.00 0.00 37 1016.7
20260503235238 11 268 0.0 1.6 0.00 0.00 0.00 38 1016.9
20260503234735 11 269 0.0 3.2 0.00 0.00 0.00 40 1016.9
20260503234233 11 240 1.6 1.6 0.00 0.00 0.00 37 1016.9
20260503233730 12 213 0.0 0.0 0.00 0.00 0.00 35 1016.9
20260503233226 12 219 1.6 6.4 0.00 0.00 0.00 35 1016.9
20260503232723 12 227 1.6 6.4 0.00 0.00 0.00 34 1017.0
20260503232220 12 253 0.0 6.4 0.00 0.00 0.00 34 1016.9
20260503231719 12 124 4.8 6.4 0.00 0.00 0.00 37 1016.6
20260503231215 12 259 3.2 4.8 0.00 0.00 0.00 35 1016.8
20260503230711 12 185 0.0 0.0 0.00 0.00 0.00 33 1016.8
20260503230208 13 257 1.6 4.8 0.00 0.00 0.00 33 1016.8
20260503225705 13 243 4.8 4.8 0.00 0.00 0.00 31 1016.6
20260503225200 13 274 3.2 11.3 0.00 0.00 0.00 30 1016.7
20260503224657 13 284 6.4 11.3 0.00 0.00 0.00 32 1016.6
20260503224155 14 108 3.2 9.7 0.00 0.00 0.00 29 1016.7
20260503223653 15 292 1.6 3.2 0.00 0.00 0.00 30 1016.8
20260503223149 15 255 4.8 6.4 0.00 0.00 0.00 29 1016.7
20260503222646 15 290 4.8 12.9 0.00 0.00 0.00 29 1016.7
20260503222144 15 265 4.8 9.7 0.00 0.00 0.00 28 1016.8
20260503221643 15 268 6.4 12.9 0.00 0.00 0.00 30 1016.6
20260503221139 15 255 3.2 6.4 0.00 0.00 0.00 34 1016.5
20260503220635 16 335 3.2 11.3 0.00 0.00 0.00 27 1016.7
20260503220132 15 277 3.2 9.7 0.00 0.00 0.00 28 1016.7
20260503215630 15 253 1.6 6.4 0.00 0.00 0.00 35 1016.7
20260503215126 15 304 4.8 9.7 0.00 0.00 0.00 27 1016.8
20260503214625 15 255 8.0 9.7 0.00 0.00 0.00 29 1016.8
20260503214120 15 303 3.2 16.1 0.00 0.00 0.00 29 1016.9
20260503213615 16 3 9.7 11.3 0.00 0.00 0.00 26 1016.9
20260503213110 15 267 6.4 14.5 0.00 0.00 0.00 29 1016.9
20260503212608 15 239 1.6 9.7 0.00 0.00 0.00 29 1016.7
20260503212105 15 268 4.8 9.7 0.00 0.00 0.00 28 1016.9
20260503211603 15 270 3.2 12.9 0.00 0.00 0.00 30 1017.1
20260503211058 15 280 4.8 9.7 0.00 0.00 0.00 29 1016.8
20260503210555 15 245 3.2 12.9 0.00 0.00 0.00 30 1016.9
20260503210050 15 337 6.4 6.4 0.00 0.00 0.00 28 1016.9
20260503205547 15 273 9.7 14.5 0.00 0.00 0.00 28 1017.2
20260503205044 16 308 9.7 14.5 0.00 0.00 0.00 29 1017.1
20260503204541 15 35 3.2 6.4 0.00 0.00 0.00 30 1017.0
20260503204038 15 329 6.4 9.7 0.00 0.00 0.00 28 1016.9
20260503203535 15 298 6.4 16.1 0.00 0.00 0.00 30 1017.1
20260503203032 15 241 11.3 17.7 0.00 0.00 0.00 30 1017.3
20260503202530 15 340 4.8 9.7 0.00 0.00 0.00 30 1017.4
20260503202027 16 299 11.3 16.1 0.00 0.00 0.00 30 1017.3
20260503201520 16 242 4.8 6.4 0.00 0.00 0.00 27 1017.5
20260503201017 15 277 1.6 11.3 0.00 0.00 0.00 28 1017.6
20260503200513 15 332 4.8 6.4 0.00 0.00 0.00 30 1017.5
20260503200010 16 303 16.1 17.7 0.00 0.00 0.00 28 1017.7
20260503195507 15 317 8.0 9.7 0.00 0.00 0.00 31 1017.6
20260503195003 15 251 6.4 14.5 0.00 0.00 0.00 31 1017.6
20260503194500 15 265 6.4 12.9 0.00 0.00 0.00 30 1017.7
20260503193955 15 245 6.4 14.5 0.00 0.00 0.00 31 1017.9
20260503193451 15 307 8.0 20.9 0.00 0.00 0.00 28 1017.8
20260503192947 15 320 6.4 9.7 0.00 0.00 0.00 30 1017.7
20260503192443 15 359 6.4 11.3 0.00 0.00 0.00 30 1017.7
20260503191939 16 281 0.0 12.9 0.00 0.00 0.00 29 1018.0
20260503191437 15 197 0.0 4.8 0.00 0.00 0.00 33 1018.0
20260503190933 15 221 6.4 14.5 0.00 0.00 0.00 29 1018.1
20260503190431 14 253 3.2 20.9 0.00 0.00 0.00 31 1018.2
20260503185927 15 290 4.8 14.5 0.00 0.00 0.00 29 1018.3
20260503185424 15 86 3.2 9.7 0.00 0.00 0.00 34 1018.3
20260503184923 15 178 4.8 9.7 0.00 0.00 0.00 32 1018.4
20260503184420 14 243 9.7 24.1 0.00 0.00 0.00 30 1018.7
20260503183916 15 198 4.8 9.7 0.00 0.00 0.00 30 1018.7
20260503183413 14 276 6.4 12.9 0.00 0.00 0.00 33 1018.7
20260503182910 15 164 8.0 14.5 0.00 0.00 0.00 30 1018.7
20260503182409 15 80 3.2 6.4 0.00 0.00 0.00 30 1018.5
20260503181906 15 300 4.8 12.9 0.00 0.00 0.00 33 1018.5
20260503181403 14 131 3.2 3.2 0.00 0.00 0.00 32 1018.5
20260503180859 14 286 1.6 6.4 0.00 0.00 0.00 31 1018.8
20260503180357 13 268 12.9 16.1 0.00 0.00 0.00 33 1018.8
20260503175853 13 267 8.0 14.5 0.00 0.00 0.00 32 1018.8
20260503175351 14 133 8.0 9.7 0.00 0.00 0.00 31 1018.8
20260503174847 13 352 3.2 16.1 0.00 0.00 0.00 35 1018.8
20260503174345 13 330 8.0 22.5 0.00 0.00 0.00 32 1018.9
20260503173845 13 295 12.9 17.7 0.00 0.00 0.00 33 1018.8
20260503173342 13 53 3.2 6.4 0.00 0.00 0.00 33 1018.9
20260503172838 13 234 8.0 14.5 0.00 0.00 0.00 32 1018.7
20260503172336 13 310 11.3 14.5 0.00 0.00 0.00 37 1019.2
20260503171832 13 323 16.1 17.7 0.00 0.00 0.00 34 1019.1
20260503171329 13 223 1.6 6.4 0.00 0.00 0.00 33 1019.0
20260503170826 13 239 11.3 12.9 0.00 0.00 0.00 34 1019.2
20260503170323 13 319 6.4 14.5 0.00 0.00 0.00 32 1019.2
20260503150715 9 279 6.4 16.1 0.00 0.00 0.00 44 1020.1
20260503150211 10 318 6.4 16.1 0.00 0.00 0.00 40 1020.4
20260503140136 8 321 6.4 6.4 0.00 0.00 0.00 52 1020.1
20260503131105 7 323 9.7 16.1 0.00 0.00 0.00 52 1020.3
20260503130603 7 317 16.1 20.9 0.00 0.00 0.00 53 1020.2
20260503110453 4 271 0.0 0.0 0.00 0.00 0.00 65 1019.1